Home > Weather > Olympia > Past weeks

Flag for USA Past Weather in Olympia, Washington, USA — Yesterday and Last 2 Weeks

Now
83 °F

Sunny.


Feels Like: 82 °F
Forecast: 58 / 89 °F
Wind: 10 mph from Northeast

Location: Olympia Airport

Current Time: Jul 28, 2016 at 1:27:50 PM

Latest Report: Jul 28, 2016 at 12:54 PM


Visibility: 10 mi

Pressure: 30.10 "Hg

Humidity: 36%

Dew Point: 53 °F

Location of OlympiaLocation

Past Weather in Olympia — Graph

°F

Olympia Temperature Yesterday

Maximum temperature yesterday: 86 °F (at 4:54 PM)
Minimum temperature yesterday: 53 °F (at 3:54 AM)
Average temperature yesterday: 67 °F

High & Low Weather Summary for the Past Weeks

 TemperatureHumidityPressure
High86 °F (Jul 21, 4:54 PM)100% (Jul 27, 6:54 AM)30.29 "Hg (Jul 27, 6:54 AM)
Low48 °F (Jul 14, 5:54 AM)32% (Jul 21, 4:54 PM)29.90 "Hg (Jul 17, 6:54 PM)
Average65 °F69%30.11 "Hg
* Reported Jul 13 11:54 AM — Jul 28 11:54 AM, Olympia, Weather by CustomWeather, © 2016

Note: Actual official high and low records may vary slightly from our data, if they occured in-between our weather recording intervals... More about our weather records

Advertising

Olympia Weather History for the Previous 24 Hours

Scroll right to see more
 ConditionsComfort  
Time TempWeatherWind HumidityBarometerVisibility
11:54 AM
Thu, Jul 28
80 °FSunny.3 mph47%30.11 "Hg10 mi
10:54 AM75 °FSunny.7 mph54%30.12 "Hg10 mi
9:54 AM71 °FSunny.5 mph61%30.13 "Hg10 mi
8:54 AM67 °FSunny.5 mph71%30.14 "Hg10 mi
7:54 AM60 °FSunny.No wind83%30.14 "Hg10 mi
6:54 AM56 °FSunny.No wind93%30.13 "Hg10 mi
5:54 AM54 °FClear.No wind93%30.12 "Hg10 mi
4:54 AM54 °FClear.No wind93%30.11 "Hg10 mi
3:54 AM57 °FClear.No wind90%30.11 "Hg10 mi
2:54 AM57 °FClear.No wind93%30.10 "Hg10 mi
1:54 AM59 °FClear.3 mph90%30.09 "Hg10 mi
12:54 AM61 °FClear.No wind87%30.10 "Hg10 mi
11:54 PM
Wed, Jul 27
64 °FClear.No wind78%30.11 "Hg10 mi
10:54 PM68 °FClear.6 mph65%30.09 "Hg10 mi
9:54 PM73 °FClear.5 mph57%30.09 "Hg10 mi
8:54 PM76 °FSunny.7 mph56%30.07 "Hg10 mi
7:54 PM81 °FSunny.5 mph47%30.05 "Hg10 mi
6:54 PM86 °FSunny.7 mph39%30.05 "Hg10 mi
5:54 PM86 °FSunny.8 mph36%30.06 "Hg10 mi
4:54 PM86 °FSunny.7 mph36%30.06 "Hg10 mi
3:54 PM84 °FSunny.No wind38%30.08 "Hg10 mi
2:54 PM81 °FSunny.No wind42%30.10 "Hg10 mi
1:54 PM80 °FSunny.7 mph45%30.12 "Hg10 mi
Weather by CustomWeather, © 2016

See weather overviewHow to use our weather pages